TimePST,TemperatureF,Dew PointF,Humidity,Sea Level PressureIn,VisibilityMPH,Wind Direction,Wind SpeedMPH,Gust SpeedMPH,PrecipitationIn,Events,Conditions,WindDirDegrees,DateUTC
12:23 AM,41.0,41.0,100,30.49,7.0,NNE,3.5,-,N/A,,Overcast,20,2014-01-16 08:23:00
12:58 AM,41.9,41.7,99,30.51,3.0,NNE,3.5,-,N/A,,Overcast,30,2014-01-16 08:58:00
1:08 AM,42.8,41.0,93,30.49,3.0,NNE,3.5,-,N/A,,Overcast,20,2014-01-16 09:08:00
1:23 AM,42.8,41.0,93,30.49,2.5,NE,3.5,-,N/A,,Overcast,40,2014-01-16 09:23:00
1:28 AM,42.8,41.0,93,30.49,1.8,NNE,3.5,-,N/A,,Overcast,30,2014-01-16 09:28:00
1:38 AM,42.8,41.0,93,30.49,2.0,Variable,4.6,-,N/A,,Overcast,0,2014-01-16 09:38:00
1:43 AM,42.8,41.0,93,30.49,3.0,NNE,3.5,-,N/A,,Overcast,20,2014-01-16 09:43:00
1:48 AM,42.8,41.0,93,30.49,3.0,NNE,2.3,-,N/A,,Overcast,30,2014-01-16 09:48:00
1:53 AM,42.8,41.0,93,30.49,2.5,NE,2.3,-,N/A,,Overcast,50,2014-01-16 09:53:00
1:58 AM,41.9,41.7,99,30.51,2.5,NE,2.3,-,N/A,,Overcast,40,2014-01-16 09:58:00
2:03 AM,42.8,41.0,93,30.49,2.0,NE,2.3,-,N/A,,Overcast,40,2014-01-16 10:03:00
2:08 AM,42.8,41.0,93,30.49,2.5,NNE,2.3,-,N/A,,Overcast,30,2014-01-16 10:08:00
2:13 AM,42.8,41.0,93,30.49,3.0,North,2.3,-,N/A,,Overcast,10,2014-01-16 10:13:00
2:58 AM,42.1,41.9,99,30.51,5.0,NNE,3.5,-,N/A,,Overcast,30,2014-01-16 10:58:00
3:33 AM,41.0,41.0,100,30.48,3.0,North,5.8,-,N/A,,Overcast,10,2014-01-16 11:33:00
3:43 AM,41.0,41.0,100,30.48,3.0,NNE,4.6,-,N/A,,Overcast,20,2014-01-16 11:43:00
3:58 AM,41.5,41.4,99,30.50,2.5,NNE,5.8,-,N/A,,Overcast,30,2014-01-16 11:58:00
4:03 AM,41.0,41.0,100,30.48,2.0,NNE,6.9,-,N/A,,Overcast,30,2014-01-16 12:03:00
4:08 AM,41.0,41.0,100,30.48,1.8,NNE,3.5,-,N/A,,Overcast,20,2014-01-16 12:08:00
4:23 AM,41.0,41.0,100,30.48,2.0,North,3.5,-,N/A,,Overcast,10,2014-01-16 12:23:00
4:28 AM,41.0,41.0,100,30.48,2.0,North,5.8,-,N/A,,Overcast,350,2014-01-16 12:28:00
4:33 AM,41.0,41.0,100,30.48,1.5,North,5.8,-,N/A,,Overcast,360,2014-01-16 12:33:00
4:38 AM,41.0,41.0,100,30.48,1.2,North,4.6,-,N/A,,Overcast,360,2014-01-16 12:38:00
4:43 AM,41.0,41.0,100,30.48,1.5,North,6.9,-,N/A,,Overcast,10,2014-01-16 12:43:00
4:48 AM,41.0,41.0,100,30.48,1.5,North,4.6,-,N/A,,Overcast,10,2014-01-16 12:48:00
4:53 AM,41.0,41.0,100,30.48,1.2,North,3.5,-,N/A,,Overcast,10,2014-01-16 12:53:00
4:58 AM,40.8,40.6,99,30.50,1.2,North,4.6,-,N/A,,Overcast,360,2014-01-16 12:58:00
5:08 AM,41.0,41.0,100,30.49,1.8,NNE,5.8,-,N/A,,Overcast,20,2014-01-16 13:08:00
5:18 AM,41.0,41.0,100,30.49,1.5,North,5.8,-,N/A,,Overcast,10,2014-01-16 13:18:00
5:23 AM,41.0,41.0,100,30.49,1.2,North,5.8,-,N/A,,Overcast,350,2014-01-16 13:23:00
5:28 AM,41.0,41.0,100,30.49,1.0,North,8.1,-,N/A,,Overcast,350,2014-01-16 13:28:00
5:38 AM,41.0,41.0,100,30.49,0.8,NNE,5.8,-,N/A,,Overcast,30,2014-01-16 13:38:00
5:43 AM,41.0,41.0,100,30.48,0.5,NNE,4.6,-,N/A,Fog,Fog,20,2014-01-16 13:43:00
5:58 AM,40.3,40.1,99,30.50,0.5,NE,4.6,-,N/A,Fog,Fog,40,2014-01-16 13:58:00
6:58 AM,40.1,39.7,99,30.50,0.5,NE,4.6,-,N/A,Fog,Fog,50,2014-01-16 14:58:00
7:08 AM,39.2,39.2,100,30.48,0.5,NE,4.6,-,N/A,Fog,Fog,50,2014-01-16 15:08:00
7:13 AM,39.2,39.2,100,30.48,0.8,NE,4.6,-,N/A,,Mist,40,2014-01-16 15:13:00
7:43 AM,39.2,39.2,100,30.48,0.5,NNE,3.5,-,N/A,Fog,Fog,30,2014-01-16 15:43:00
7:48 AM,39.2,39.2,100,30.48,0.2,NNE,6.9,-,N/A,Fog,Fog,30,2014-01-16 15:48:00
7:58 AM,39.7,39.4,99,30.50,0.2,North,6.9,-,N/A,Fog,Fog,350,2014-01-16 15:58:00
8:03 AM,39.2,39.2,100,30.48,0.2,NNE,4.6,-,N/A,Fog,Fog,20,2014-01-16 16:03:00
8:08 AM,39.2,39.2,100,30.48,0.2,NE,3.5,-,N/A,Fog,Fog,40,2014-01-16 16:08:00
8:58 AM,39.6,39.4,99,30.50,0.2,NE,3.5,-,N/A,Fog,Fog,50,2014-01-16 16:58:00
9:08 AM,39.2,39.2,100,30.48,0.2,NE,4.6,-,N/A,Fog,Fog,50,2014-01-16 17:08:00
9:28 AM,39.2,39.2,100,30.49,0.5,NE,2.3,-,N/A,Fog,Fog,40,2014-01-16 17:28:00
9:38 AM,39.2,39.2,100,30.49,0.5,NE,2.3,-,N/A,Fog,Fog,50,2014-01-16 17:38:00
9:43 AM,39.2,39.2,100,30.49,0.5,NE,2.3,-,N/A,Fog,Fog,50,2014-01-16 17:43:00
9:48 AM,39.2,39.2,100,30.48,0.5,NNE,3.5,-,N/A,Fog,Fog,20,2014-01-16 17:48:00
9:58 AM,40.1,39.9,99,30.50,0.5,NNE,3.5,-,N/A,Fog,Fog,20,2014-01-16 17:58:00
10:08 AM,41.0,39.2,93,30.48,0.8,Variable,4.6,-,N/A,,Overcast,0,2014-01-16 18:08:00
10:13 AM,41.0,39.2,93,30.48,0.8,NNE,3.5,-,N/A,,Overcast,20,2014-01-16 18:13:00
10:28 AM,41.0,41.0,100,30.48,1.0,NNE,4.6,-,N/A,,Overcast,20,2014-01-16 18:28:00
10:38 AM,41.0,41.0,100,30.48,0.8,North,4.6,-,N/A,,Overcast,350,2014-01-16 18:38:00
10:43 AM,41.0,41.0,100,30.48,1.2,North,4.6,-,N/A,,Overcast,360,2014-01-16 18:43:00
10:58 AM,40.8,40.8,100,30.50,0.5,NE,5.8,-,N/A,Fog,Fog,40,2014-01-16 18:58:00
11:13 AM,41.0,41.0,100,30.47,0.8,NNE,9.2,-,N/A,,Overcast,30,2014-01-16 19:13:00
11:58 AM,41.0,41.0,100,30.48,0.8,North,3.5,-,N/A,,Overcast,350,2014-01-16 19:58:00
12:08 PM,41.0,41.0,100,30.46,0.5,NE,3.5,-,N/A,Fog,Fog,40,2014-01-16 20:08:00
12:53 PM,41.0,41.0,100,30.44,0.8,NE,8.1,-,N/A,,Overcast,40,2014-01-16 20:53:00
12:58 PM,41.0,41.0,100,30.46,0.8,North,5.8,-,N/A,,Overcast,360,2014-01-16 20:58:00
1:58 PM,40.6,40.6,100,30.43,0.8,ENE,5.8,-,N/A,,Overcast,60,2014-01-16 21:58:00
2:57 PM,41.0,41.0,100,30.43,0.8,NE,4.6,-,N/A,,Overcast,40,2014-01-16 22:57:00
3:58 PM,41.0,41.0,100,30.43,0.6,NE,4.6,-,N/A,Fog,Fog,40,2014-01-16 23:58:00
4:55 PM,41.0,39.2,93,30.42,0.2,ENE,5.8,-,N/A,Fog,Fog,70,2014-01-17 00:55:00
5:57 PM,39.2,39.2,100,30.41,0.5,NE,3.5,-,N/A,Fog,Fog,50,2014-01-17 01:57:00
6:59 PM,41.0,41.0,100,30.39,0.8,North,5.8,-,N/A,,Overcast,10,2014-01-17 02:59:00
7:27 PM,41.0,41.0,100,30.37,3.0,NE,3.5,-,N/A,,Overcast,40,2014-01-17 03:27:00
7:58 PM,40.5,40.1,99,30.39,5.0,North,5.8,-,N/A,,Overcast,360,2014-01-17 03:58:00
8:13 PM,41.0,41.0,100,30.37,4.0,NNE,3.5,-,N/A,,Overcast,20,2014-01-17 04:13:00
8:58 PM,40.5,40.3,99,30.39,3.0,NNE,4.6,-,N/A,,Overcast,30,2014-01-17 04:58:00
9:03 PM,41.0,41.0,100,30.36,2.0,ENE,4.6,-,N/A,,Overcast,60,2014-01-17 05:03:00
9:08 PM,41.0,41.0,100,30.36,1.8,NE,3.5,-,N/A,,Overcast,40,2014-01-17 05:08:00
9:23 PM,41.0,39.2,93,30.36,1.5,NNE,3.5,-,N/A,,Overcast,30,2014-01-17 05:23:00
9:33 PM,41.0,39.2,93,30.36,2.0,NNE,4.6,-,N/A,,Overcast,20,2014-01-17 05:33:00
9:48 PM,41.0,39.2,93,30.36,1.5,NE,5.8,-,N/A,,Overcast,40,2014-01-17 05:48:00
9:58 PM,40.1,39.7,99,30.38,1.8,NNE,5.8,-,N/A,,Overcast,30,2014-01-17 05:58:00
10:08 PM,39.2,39.2,100,30.36,1.5,NE,5.8,-,N/A,,Overcast,40,2014-01-17 06:08:00
10:13 PM,39.2,39.2,100,30.36,1.2,NNE,5.8,-,N/A,,Overcast,30,2014-01-17 06:13:00
10:33 PM,39.2,39.2,100,30.36,1.0,NE,5.8,-,N/A,,Overcast,40,2014-01-17 06:33:00
10:43 PM,39.2,39.2,100,30.36,0.8,NE,5.8,-,N/A,,Overcast,40,2014-01-17 06:43:00
10:48 PM,39.2,39.2,100,30.36,0.8,NE,4.6,-,N/A,,Mist,50,2014-01-17 06:48:00
10:58 PM,39.4,39.0,99,30.38,0.8,NE,4.6,-,N/A,,Mist,40,2014-01-17 06:58:00
11:03 PM,39.2,39.2,100,30.36,0.5,NE,2.3,-,N/A,Fog,Fog,50,2014-01-17 07:03:00
11:28 PM,39.2,39.2,100,30.36,0.5,ENE,4.6,-,N/A,Fog,Fog,60,2014-01-17 07:28:00
11:58 PM,39.0,38.8,99,30.37,0.5,NE,4.6,-,N/A,Fog,Fog,40,2014-01-17 07:58:00